sat.trackr.live / text

‹ back to catalog

STARLINK-35516

NORAD 65918 · 2025-225J

PAYLOAD ACTIVE UNKNOWN

§ Identity

Operator
Country
US
Launch date
2025-10-08
Launch site
AFWTR
Launch vehicle
Mass (kg)
RCS (m²)

Purposes: comms

External: N2YO · Heavens-Above · Gunter

§ Orbital elements

Epoch: 2026-05-25T01:37:25.575168Z

Period
94.11 min
Inclination
53.1593°
Eccentricity
0.0001166
Mean motion
15.30183160 rev/d
Perigee alt
474.5 km
Apogee alt
476.1 km
Semi-major
6,853.4 km
B*
3.5224e-4
RAAN
170.7863°
Arg perigee
85.0144°
Mean anomaly
275.0989°
Rev number
3,610

§ Raw data

STARLINK-355161 65918U 25225J   26145.06765712  .00010082  00000+0  35224-3 0  99962 65918  53.1593 170.7863 0001166  85.0144 275.0989 15.30183160 36103

JSON: /api/v1/satellites/65918 · /tle

For live sub-satellite position, see the globe view (requires WebGL).

§ Visibility from observer

Set your observer location to see the next 7 days of passes ≥ 10°. The values pass through the URL so the page stays shareable.

No JS? Fill the form by hand. The geolocation button needs JavaScript.